When you browse on this site, cookies collect data to enhance your experience and personalize the content and advertising you see.
Visit our Privacy Policy to learn more. By continuing to use the site, you agree to this use of cookies and data.
  • In United Kingdom
  • List of Countries
  • For 7 days
  • Water Temperature
  • Weather Map
  • Weather Widgets
  • user-avatar
    Login

    Hourly Weather Penonomé

    Today, 17 September, Tuesday

    Time Temperature Precipitation Wind Pressure Humidity
    00:00 +25°C° 0 mm 1 mps 750 mmHg 95%
    01:00 +25°C° 0 mm 1 mps 749 mmHg 96%
    02:00 +25°C° 0.1 mm 1 mps 749 mmHg 96%
    03:00 +25°C° 0.1 mm 1 mps 749 mmHg 96%
    04:00 +25°C° 0.1 mm 1 mps 749 mmHg 95%
    05:00 +25°C° 0.1 mm 1 mps 749 mmHg 94%
    06:00 +26°C° 0.1 mm 1 mps 749 mmHg 93%
    07:00 +26°C° 0.1 mm 1 mps 750 mmHg 92%
    08:00 +28°C° 0.2 mm 1 mps 750 mmHg 86%
    09:00 +29°C° 0.2 mm 1 mps 750 mmHg 79%
    10:00 +31°C° 0.2 mm 1 mps 751 mmHg 72%
    11:00 +31°C° 0.9 mm 1 mps 750 mmHg 71%
    12:00 +32°C° 0.9 mm 1 mps 750 mmHg 70%
    13:00 +32°C° 0.9 mm 1 mps 749 mmHg 69%
    14:00 +32°C° 3.2 mm 1 mps 749 mmHg 73%
    15:00 +31°C° 3.2 mm 1 mps 748 mmHg 76%
    16:00 +30°C° 3.2 mm 1 mps 748 mmHg 80%
    17:00 +29°C° 1.5 mm 1 mps 748 mmHg 84%
    18:00 +28°C° 1.5 mm 1 mps 748 mmHg 87%
    19:00 +27°C° 1.5 mm 1 mps 749 mmHg 91%
    20:00 +27°C° 0.1 mm 1 mps 749 mmHg 91%
    21:00 +27°C° 0.1 mm 1 mps 750 mmHg 92%
    22:00 +26°C° 0.1 mm 1 mps 750 mmHg 92%
    23:00 +26°C° 0 mm 1 mps 750 mmHg 92%

    Tomorrow, 18 September, Wednesday

    Time Temperature Precipitation Wind Pressure Humidity
    00:00 +26°C° 0 mm 1 mps 749 mmHg 93%
    01:00 +26°C° 0 mm 1 mps 749 mmHg 93%
    02:00 +25°C° 0.1 mm 1 mps 749 mmHg 93%
    03:00 +25°C° 0.1 mm 1 mps 748 mmHg 93%
    04:00 +25°C° 0.1 mm 1 mps 748 mmHg 93%
    05:00 +25°C° 0 mm 1 mps 748 mmHg 93%
    06:00 +26°C° 0 mm 1 mps 749 mmHg 92%
    07:00 +26°C° 0 mm 1 mps 749 mmHg 91%
    08:00 +28°C° 0 mm 1 mps 749 mmHg 85%
    09:00 +29°C° 0 mm 1 mps 750 mmHg 78%
    10:00 +31°C° 0 mm 1 mps 750 mmHg 71%
    11:00 +31°C° 0.3 mm 1 mps 749 mmHg 68%
    12:00 +32°C° 0.3 mm 2 mps 749 mmHg 65%
    13:00 +34°C° 0.3 mm 2 mps 749 mmHg 63%
    14:00 +32°C° 2.9 mm 2 mps 748 mmHg 67%
    15:00 +31°C° 2.9 mm 1 mps 748 mmHg 72%
    16:00 +30°C° 2.9 mm 1 mps 747 mmHg 77%
    17:00 +29°C° 1.8 mm 1 mps 747 mmHg 82%
    18:00 +28°C° 1.8 mm 1 mps 748 mmHg 87%
    19:00 +26°C° 1.8 mm 2 mps 748 mmHg 92%
    20:00 +26°C° 0.1 mm 2 mps 748 mmHg 93%
    21:00 +26°C° 0.1 mm 1 mps 749 mmHg 94%
    22:00 +26°C° 0.1 mm 1 mps 749 mmHg 95%
    23:00 +26°C° 0.1 mm 1 mps 749 mmHg 95%

    Day after tomorrow, 19 September, Thursday

    Time Temperature Precipitation Wind Pressure Humidity
    00:00 +26°C° 0.1 mm 1 mps 749 mmHg 94%
    01:00 +25°C° 0.1 mm 1 mps 749 mmHg 94%
    02:00 +25°C° 0.3 mm 1 mps 748 mmHg 94%
    03:00 +25°C° 0.3 mm 1 mps 748 mmHg 94%
    04:00 +25°C° 0.3 mm 1 mps 748 mmHg 94%
    05:00 +25°C° 0.2 mm 1 mps 748 mmHg 93%
    06:00 +26°C° 0.2 mm 1 mps 749 mmHg 92%
    07:00 +26°C° 0.2 mm 1 mps 749 mmHg 91%
    08:00 +27°C° 0 mm 1 mps 749 mmHg 86%
    09:00 +29°C° 0 mm 1 mps 749 mmHg 80%
    10:00 +30°C° 0 mm 2 mps 750 mmHg 75%
    11:00 +30°C° 0.4 mm 2 mps 749 mmHg 76%
    12:00 +30°C° 0.4 mm 2 mps 748 mmHg 77%
    13:00 +30°C° 0.4 mm 2 mps 748 mmHg 78%
    14:00 +30°C° 2 mm 2 mps 748 mmHg 81%
    15:00 +29°C° 2 mm 2 mps 747 mmHg 85%
    16:00 +28°C° 2 mm 2 mps 747 mmHg 88%
    17:00 +27°C° 2.1 mm 2 mps 747 mmHg 91%
    18:00 +27°C° 2.1 mm 2 mps 748 mmHg 93%
    19:00 +26°C° 2.1 mm 2 mps 748 mmHg 96%
    20:00 +26°C° 0.1 mm 2 mps 748 mmHg 95%
    21:00 +26°C° 0.1 mm 2 mps 749 mmHg 95%
    22:00 +26°C° 0.1 mm 2 mps 749 mmHg 95%
    23:00 +25°C° 0 mm 2 mps 749 mmHg 95%

    20 September, Friday

    Time Temperature Precipitation Wind Pressure Humidity
    00:00 +25°C° 0 mm 3 mps 749 mmHg 95%
    01:00 +25°C° 0 mm 3 mps 748 mmHg 95%
    02:00 +25°C° 0 mm 3 mps 748 mmHg 95%
    03:00 +25°C° 0 mm 2 mps 748 mmHg 95%
    04:00 +25°C° 0 mm 2 mps 748 mmHg 95%
    05:00 +25°C° 0.1 mm 2 mps 748 mmHg 95%
    06:00 +25°C° 0.1 mm 2 mps 749 mmHg 95%
    07:00 +26°C° 0.1 mm 2 mps 749 mmHg 95%
    08:00 +27°C° 0.4 mm 2 mps 750 mmHg 90%
    09:00 +28°C° 0.4 mm 3 mps 750 mmHg 85%
    10:00 +30°C° 0.4 mm 3 mps 750 mmHg 80%
    11:00 +30°C° 1.7 mm 3 mps 750 mmHg 81%
    12:00 +30°C° 1.7 mm 3 mps 749 mmHg 81%
    13:00 +30°C° 1.7 mm 3 mps 749 mmHg 82%
    14:00 +29°C° 2.8 mm 3 mps 749 mmHg 86%
    15:00 +28°C° 2.8 mm 3 mps 749 mmHg 90%
    16:00 +26°C° 2.8 mm 3 mps 748 mmHg 93%
    17:00 +26°C° 2.2 mm 3 mps 748 mmHg 94%
    18:00 +26°C° 2.2 mm 3 mps 749 mmHg 94%
    19:00 +26°C° 2.2 mm 3 mps 749 mmHg 95%
    20:00 +26°C° 0.3 mm 3 mps 749 mmHg 95%
    21:00 +25°C° 0.3 mm 3 mps 750 mmHg 95%
    22:00 +25°C° 0.3 mm 3 mps 750 mmHg 95%
    23:00 +25°C° 0 mm 3 mps 750 mmHg 96%

    21 September, Saturday

    Time Temperature Precipitation Wind Pressure Humidity
    00:00 +25°C° 0 mm 2 mps 750 mmHg 96%
    01:00 +25°C° 0 mm 2 mps 749 mmHg 96%
    02:00 +25°C° 0 mm 2 mps 749 mmHg 96%
    03:00 +25°C° 0 mm 2 mps 749 mmHg 96%
    04:00 +25°C° 0 mm 2 mps 749 mmHg 96%
    05:00 +25°C° 0 mm 1 mps 749 mmHg 96%
    06:00 +25°C° 0 mm 1 mps 750 mmHg 95%
    07:00 +25°C° 0 mm 1 mps 750 mmHg 95%
    08:00 +27°C° 0.1 mm 2 mps 750 mmHg 90%
    09:00 +28°C° 0.1 mm 2 mps 751 mmHg 86%
    10:00 +29°C° 0.1 mm 2 mps 751 mmHg 81%
    11:00 +30°C° 1.6 mm 3 mps 750 mmHg 81%
    12:00 +30°C° 1.6 mm 3 mps 750 mmHg 80%
    13:00 +31°C° 1.6 mm 3 mps 749 mmHg 80%
    14:00 +30°C° 2.9 mm 3 mps 749 mmHg 83%
    15:00 +29°C° 2.9 mm 3 mps 748 mmHg 85%
    16:00 +29°C° 2.9 mm 3 mps 748 mmHg 88%
    17:00 +28°C° 1.3 mm 2 mps 748 mmHg 89%
    18:00 +27°C° 1.3 mm 2 mps 748 mmHg 91%
    19:00 +26°C° 1.3 mm 2 mps 749 mmHg 93%
    20:00 +26°C° 0 mm 2 mps 749 mmHg 94%
    21:00 +26°C° 0 mm 2 mps 750 mmHg 94%
    22:00 +25°C° 0 mm 2 mps 750 mmHg 95%
    23:00 +25°C° 0 mm 2 mps 750 mmHg 95%

    22 September, Sunday

    Time Temperature Precipitation Wind Pressure Humidity
    00:00 +25°C° 0 mm 2 mps 750 mmHg 95%
    01:00 +25°C° 0 mm 1 mps 750 mmHg 95%
    02:00 +25°C° 0 mm 1 mps 749 mmHg 94%
    03:00 +25°C° 0 mm 1 mps 749 mmHg 94%
    04:00 +25°C° 0 mm 1 mps 749 mmHg 93%
    05:00 +25°C° 0.1 mm 1 mps 749 mmHg 93%
    06:00 +25°C° 0.1 mm 1 mps 749 mmHg 92%
    07:00 +26°C° 0.1 mm 1 mps 750 mmHg 92%
    08:00 +27°C° 0.4 mm 1 mps 750 mmHg 86%
    09:00 +29°C° 0.4 mm 1 mps 750 mmHg 80%
    10:00 +30°C° 0.4 mm 1 mps 751 mmHg 75%
    11:00 +31°C° 1.5 mm 2 mps 750 mmHg 74%
    12:00 +31°C° 1.5 mm 2 mps 750 mmHg 73%
    13:00 +32°C° 1.5 mm 2 mps 749 mmHg 72%
    14:00 +31°C° 3.4 mm 2 mps 749 mmHg 77%
    15:00 +30°C° 3.4 mm 2 mps 748 mmHg 82%
    16:00 +29°C° 3.4 mm 2 mps 748 mmHg 87%
    17:00 +28°C° 1.1 mm 2 mps 748 mmHg 89%
    18:00 +27°C° 1.1 mm 2 mps 748 mmHg 91%
    19:00 +26°C° 1.1 mm 2 mps 748 mmHg 93%
    20:00 +26°C° 0 mm 1 mps 749 mmHg 93%
    21:00 +26°C° 0 mm 1 mps 750 mmHg 94%
    22:00 +26°C° 0 mm 1 mps 750 mmHg 94%
    23:00 +26°C° 0 mm 1 mps 750 mmHg 94%
    Show more